This is the latest recevied weather packets stored in our database for station/object PY5KT-13. If no packets are shown the sender has not sent any weather packets the latest 10 day(s).
| Time | Temp. | Humidity | Pressure | Rain* | Wind** | Luminosity | Snow |
|---|---|---|---|---|---|---|---|
| 1777899624 | 16.11° C | 99% | 1022.9 hPa | 0.25 mm | - | 204 W/m² | - |
| 1777899322 | 15.56° C | 99% | 1022.6 hPa | 0.25 mm | - | 193 W/m² | - |
| 1777899020 | 15° C | 99% | 1022.8 hPa | 0.25 mm | - | 243 W/m² | - |
| 1777898718 | 14.44° C | 99% | 1022.9 hPa | 0.25 mm | - | 137 W/m² | - |
| 1777898416 | 15° C | 99% | 1023.1 hPa | 0.25 mm | - | 127 W/m² | - |
| 1777898114 | 14.44° C | 99% | 1023.1 hPa | 0.25 mm | - | 142 W/m² | - |
| 1777897813 | 13.89° C | 99% | 1023.1 hPa | 0.25 mm | - | 122 W/m² | - |
| 1777897511 | 13.89° C | 99% | 1023 hPa | 0.25 mm | - | 89 W/m² | - |
| 1777897208 | 13.89° C | 99% | 1023.1 hPa | 0.25 mm | - | 72 W/m² | - |
| 1777896907 | 13.89° C | 99% | 1023.2 hPa | 0.25 mm | - | 61 W/m² | - |
| 1777896604 | 13.89° C | 99% | 1023.1 hPa | 0.25 mm | - | 59 W/m² | - |
| 1777896302 | 13.89° C | 99% | 1023 hPa | 0 mm | - | 65 W/m² | - |
| 1777895999 | 14.44° C | 97% | 1023.2 hPa | 0 mm | - | 22 W/m² | - |
| 1777895697 | 14.44° C | 97% | 1023.3 hPa | 0 mm | - | 28 W/m² | - |
| 1777895395 | 14.44° C | 98% | 1023.1 hPa | 0 mm | - | 47 W/m² | - |
| 1777895093 | 14.44° C | 97% | 1023 hPa | 0 mm | - | 52 W/m² | - |
| 1777894791 | 14.44° C | 96% | 1023.1 hPa | 0 mm | - | 62 W/m² | - |
| 1777894489 | 14.44° C | 95% | 1023 hPa | 0 mm | - | 101 W/m² | - |
| 1777894187 | 15° C | 93% | 1022.9 hPa | 0 mm | - | 81 W/m² | - |
| 1777893886 | 15.56° C | 93% | 1022.7 hPa | 0 mm | - | 126 W/m² | - |
| 1777893584 | 15° C | 99% | 1022.8 hPa | 0 mm | - | 118 W/m² | - |
| 1777893282 | 14.44° C | 99% | 1022.8 hPa | 0 mm | - | 104 W/m² | - |
| 1777892980 | 13.89° C | 99% | 1022.7 hPa | 0 mm | - | 238 W/m² | - |
| 1777892678 | 12.78° C | 99% | 1022.8 hPa | 0 mm | - | 23 W/m² | - |
| 1777892377 | 12.78° C | 99% | 1022.8 hPa | 0 mm | - | 13 W/m² | - |
* Rain latest hour (hover to see other rain measurements)
** Current wind speed in m/s (hover to see current wind gust speed)